Flag for Cambodia Weather past 2 weeks in Battambang, Cambodia

Now
82 °F

Passing clouds.


Feels Like: 89 °F
Forecast: 79 / 96 °F
Wind: 3 mph from West

Location: Siemreap

Current Time: Apr 28, 2015 at 4:37:43 AM

Latest Report: Apr 28, 2015 at 1:00 AM


Visibility: 6 mi

Pressure: 29.80 "Hg

Humidity: 79%

Dew point: 75 °F

Location of BattambangLocation

Historic Weather in Battambang — Graph

°F

Battambang temperature yesterday

Maximum temperature yesterday: 97 °F (at 12:30 PM)
Minimum temperature yesterday: 81 °F (at 12:00 AM)
Average temperature yesterday: 90 °F

Past Weeks' High & Low Weather Summary

 TemperatureHumidityPressure
High104 °F (Apr 20, 3:30 PM)100% (Apr 23, 1:00 AM)30.09 "Hg (Apr 23, 1:00 AM)
Low75 °F (Apr 14, 7:00 AM)23% (Apr 22, 2:00 PM)29.59 "Hg (Apr 21, 4:30 PM)
Average89 °F54%29.80 "Hg
* Reported Apr 13 1:00 AM — Apr 28 1:00 AM, Battambang, Weather by CustomWeather, © 2015

Note: Actual official high and low records may vary slightly from our data, if they occured in-between our weather recording intervals... More about our weather records

Advertising

Battambang weather history for previous 24 hours

 ConditionsComfort  
Time TempWeatherWind HumidityBarometerVisibility
1:00 AM
Tue, Apr 28
82 °FPassing clouds.3 mph79%29.80 "Hg6 mi
12:30 AM82 °FPassing clouds.3 mph79%29.80 "Hg6 mi
11:30 PM
Mon, Apr 27
84 °FPassing clouds.5 mph74%29.83 "Hg6 mi
11:00 PM84 °FPassing clouds.6 mph74%29.83 "Hg6 mi
10:30 PM86 °FPassing clouds.8 mph66%29.83 "Hg6 mi
10:00 PM86 °FPassing clouds.7 mph66%29.83 "Hg6 mi
9:30 PM86 °FPassing clouds.2 mph66%29.80 "Hg6 mi
9:00 PM88 °FPassing clouds.2 mph62%29.80 "Hg6 mi
8:30 PM88 °FPassing clouds.2 mph59%29.80 "Hg6 mi
8:00 PM90 °FPassing clouds.2 mph55%29.77 "Hg6 mi
7:30 PM90 °FPassing clouds.5 mph52%29.77 "Hg6 mi
7:00 PM91 °FPassing clouds.3 mph46%29.74 "Hg6 mi
6:30 PM91 °FPassing clouds.7 mph44%29.74 "Hg6 mi
6:00 PM93 °FScattered clouds.8 mph41%29.74 "HgN/A
5:30 PM95 °FScattered clouds.8 mph39%29.71 "HgN/A
5:00 PM95 °FScattered clouds.7 mph39%29.71 "HgN/A
4:30 PM95 °FScattered clouds.8 mph36%29.71 "HgN/A
4:00 PM95 °FScattered clouds.5 mph39%29.71 "HgN/A
3:30 PM97 °FScattered clouds.5 mph34%29.71 "HgN/A
3:00 PM97 °FScattered clouds.7 mph34%29.74 "HgN/A
2:30 PM95 °FScattered clouds.6 mph39%29.74 "HgN/A
2:00 PM95 °FScattered clouds.9 mph39%29.74 "HgN/A
1:30 PM97 °FScattered clouds.5 mph37%29.77 "HgN/A
1:00 PM95 °FScattered clouds.3 mph41%29.80 "HgN/A
12:30 PM97 °FScattered clouds.3 mph39%29.80 "HgN/A
12:00 PM95 °FPassing clouds.3 mph41%29.83 "HgN/A
11:30 AM91 °FPassing clouds.2 mph49%29.86 "HgN/A
11:00 AM93 °FPassing clouds.5 mph44%29.86 "HgN/A
10:30 AM91 °FPassing clouds.5 mph46%29.86 "HgN/A
10:00 AM90 °FPassing clouds.5 mph49%29.86 "HgN/A
9:30 AM88 °FScattered clouds.5 mph55%29.86 "HgN/A
9:00 AM88 °FScattered clouds.6 mph55%29.89 "HgN/A
8:30 AM84 °FScattered clouds.3 mph70%29.89 "HgN/A
8:00 AM84 °FScattered clouds.6 mph74%29.86 "HgN/A
7:30 AM82 °FPassing clouds.3 mph79%29.86 "HgN/A
7:00 AM81 °FPassing clouds.3 mph84%29.83 "HgN/A
Weather by CustomWeather, © 2015

See weather overviewHow to use our weather pages